Powrót do katalogu

STARLINK-5407

AktywnyŁącznośćVLEO
NORAD 54858·PAYLOAD·🇺🇸 United States

Wystrzelony Dec 28, 2022 z Cape Canaveral Space Force Station

Loading…

Następne Przeloty (najbliższe 24 godziny)

TLE

ŚwieżeSource: CelesTrak SupGP

Epoka: Sep 14, 2026, 21:49 UTC

1 54858C 22177AQ  26257.90951389 -.00017853  00000+0 -64680-3 0  2574
2 54858  43.0008 132.7924 0001319 268.2972  11.7777 15.27578927    19

Śledź STARLINK-5407 w czasie rzeczywistym z AllMySat

Download on the App Store